CHINASAT 16 (SJ-13)     
1 42662U 17018A   19256.20877292 -.00000368  00000-0  00000-0 0  9995
2 42662   0.0486  93.4215 0006803 125.7601 318.3673  1.00269071  8985
CZ-3B R/B               
1 42663U 17018B   19259.33928016  .00001017  00000-0  22657-3 0  9990
2 42663  20.7794  56.3736 7443754  11.8352 358.7193  2.09247314 18092